• MPC Preparation (Info)

  • MPEC 2017-P26 : 2012 TC4

    The following Minor Planet Electronic Circular may be linked-to from your own Web pages, but must not otherwise be redistributed electronically.

    A form allowing access to any MPEC is at the bottom of this page.


    Read MPEC 2017-P25 Read MPEC 2017-P27


    M.P.E.C. 2017-P26                                Issued 2017 Aug. 6, 13:29 UT
    
         The Minor Planet Electronic Circulars contain information on unusual
             minor planets and routine data on comets.  They are published
        on behalf of Division F of the International Astronomical Union by the
              Minor Planet Center, Smithsonian Astrophysical Observatory,
                              Cambridge, MA 02138, U.S.A.
    
                 Prepared using the Tamkin Foundation Computer Network
    
                                  MPC@CFA.HARVARD.EDU
                URL https://www.minorplanetcenter.net/    ISSN 1523-6714
    
                                       2012 TC4
    
                               Revision to MPEC 2012-T18
    
    Additional Observations:
         K12T04C &C2017 07 27.24650422 58 27.142-03 54 38.10         26.8 GUEP026309
         K12T04C &C2017 07 27.26310522 58 27.812-03 54 31.26         26.6 GUEP026309
         K12T04C &C2017 07 31.21142723 01 30.837-03 28 25.26         26.2 GUEP026309
         K12T04C &C2017 08 05.37787023 04 57.564-02 56 57.20         26.2 GUEP026309
         K12T04C &C2017 08 05.39707023 04 58.115-02 56 50.59         25.9 GUEP026309
    
    Observer details:
    309 Cerro Paranal.  Observers O. Hainaut, D. Koschny, M. Micheli.  Measurers
        M. Micheli, O. Hainaut.  8.2-m VLT + CCD.
    
    First and last observations above in comparison with prediction:
    Residuals in seconds of arc (or two decimals in degrees), reference and Delta-T
    170727 309 0.08+ 0.03+    170805 309 0.10+ 0.04+    MPO413633   -0.045 day
    
    Orbital elements:
    2012 TC4                                                 Earth MOID = 0.0002 AU
    Epoch 2017 Sept. 4.0 TT = JDT 2458000.5                 MPC
    M 316.80622              (2000.0)            P               Q
    n   0.59139205     Peri.  222.56235     +0.48770763     -0.87299448
    a   1.4056776      Node   198.24918     +0.80493623     +0.45174889
    e   0.3358094      Incl.    0.85646     +0.33796292     +0.18385752
    P   1.67           H   26.8           G   0.15           U   2
    Residuals in seconds of arc
    121004 F51  0.1-  0.0     121009 E10  0.1+  0.1-    121010 F65  0.2-  0.1-
    121004 F51  0.0   0.1+    121009 E10  0.1+  0.1-    121010 F65  0.2-  0.0
    121006 703  1.0-  0.4+    121009 E10  0.1+  0.0     121010 F65  0.3-  0.0
    121006 703  0.1-  0.4+    121009 E10  0.1-  0.2-    121010 F65  0.2-  0.0
    121006 703 (0.2+  1.8+)   121009 E10  0.1-  0.1-    121010 F65  0.0   0.0
    121006 J95  0.1-  0.1+    121009 E10  0.0   0.1-    121010 F65  0.1-  0.1+
    121006 J95  0.3-  0.1-    121009 E10  0.2+  0.1-    121010 F65  0.2-  0.1+
    121006 J95  0.0   0.2-    121009 E10  0.0   0.1+    121010 F65  0.3-  0.0
    121006 J84  0.1+  0.1-    121009 E10  0.1-  0.1-    121010 F65  0.2-  0.0
    121006 J84  0.3+  0.1+    121009 E10  0.1-  0.1-    121010 F65  0.4-  0.0
    121006 J84  0.2-  0.2+    121009 E10  0.0   0.0     121010 F65  0.3-  0.0
    121007 H36  0.5-  0.5-    121009 B88 (1.6-  0.6-)   121010 F65  0.3-  0.0
    121007 H36  0.4-  0.3-    121009 B88  1.3-  0.9-    121010 F65  0.3-  0.0
    121007 H36  0.7+  0.2-    121009 B88  1.1-  1.0-    121010 F65  0.3-  0.0
    121007 932  0.5-  0.1-    121009 B88 (1.5-  0.8-)   121010 T12  0.0   0.0
    121007 932  0.6-  0.1-    121009 B88 (1.7-  1.0-)   121010 T12  0.2+  0.1+
    121007 300  0.1+  0.4-    121009 C77  0.2+  0.3+    121010 T12  0.0   0.0
    121007 300  0.4+  0.2-    121009 C77  1.1-  0.2-    121010 089  0.2+  0.0
    121007 300  0.6+  0.3+    121009 C77  1.2-  0.2-    121010 089  0.5+  0.2-
    121007 900  0.1-  0.1+    121009 B88  1.0-  0.6-    121010 089  0.1+  0.1-
    121007 900  0.2+  0.2-    121009 C77  0.2-  0.1+    121010 089  0.0   0.1-
    121007 900  0.2-  0.4-    121009 C77  0.5-  0.5+    121010 089  0.1+  0.0
    121007 C32  0.4+  0.3+    121009 B88 (1.5-  0.8-)   121010 089  0.1+  0.1+
    121007 C32  0.4-  0.8+    121009 B04  0.2-  0.4+    121010 089  0.0   0.2+
    121007 C32  0.4-  0.2+    121009 B88 (2.0-  0.9-)   121010 B04  1.2-  0.3-
    121007 C32  0.6-  0.5+    121009 B04  0.4-  0.7+    121010 B04  0.2-  0.9-
    121008 J16  0.2+  0.7+    121009 B04  0.0   0.4+    121010 B04  0.6-  0.1-
    121008 J16  0.8+  0.8+    121009 B04  0.6-  0.1+    121010 J95  0.2+  0.3-
    121008 J16  0.2+  0.5+    121009 104  0.3+  0.2-    121010 J95  0.0   0.2-
    121008 470  0.1+  0.1+    121009 B04  0.8-  0.1-    121010 B04  1.3-  0.9+
    121008 470  0.2-  0.6+    121009 G40  0.2+  0.2-    121010 J95  0.1-  0.2-
    121008 470  0.4-  0.1+    121009 B04  0.1-  0.2+    121010 B04  0.9-  0.2+
    121008 470  0.0   0.2+    121009 B04  0.2+  0.3+    121010 089  0.4+  0.2+
    121008 470  0.0   0.1+    121009 B04  0.3-  0.3+    121010 089  0.1+  0.1+
    121008 470  0.1+  0.4+    121009 104  0.4+  0.1-    121010 089  0.2+  0.1+
    121008 470  0.2+  0.0     121009 104  0.2+  0.4-    121010 089  0.2+  0.3-
    121009 H21  0.1+  0.0     121009 104  0.3+  0.1-    121010 089  0.0   0.1+
    121009 H21  0.0   0.0     121009 G40  0.7+  0.1+    121010 G40  0.7+  0.2+
    121009 H21  0.1+  0.1-    121010 G40  0.1+  0.4-    121010 G40  0.2-  0.6+
    121009 G48  0.1+  0.1-    121010 G40  0.3+  0.1+    121010 470  0.1+  0.5+
    121009 G48  0.0   0.0     121010 104  0.5+  0.1-    121010 470  0.2+  0.6+
    121009 G48  0.6+  0.2+    121010 H17  0.3+  0.3-    121010 470  0.1+  0.5+
    121009 G48  0.8+  0.0     121010 H17  1.1+  0.2+    121010 G40  0.3+  0.2+
    121009 G48  0.2+  0.1+    121010 H17  1.1+  0.4+    121010 G40  0.3-  0.5-
    121009 G48  0.5+  0.2+    121010 H17  1.2+  0.3+    121010 204  0.1-  0.1-
    121009 G48  0.1-  0.1-    121010 H01  0.1+  0.1-    121010 204  0.0   0.0
    121009 G48  0.1-  0.1-    121010 695  0.1-  0.3+    121010 204  0.0   0.1-
    121009 G48  0.2-  0.2+    121010 695  0.1-  0.4+    121010 204  0.2-  0.1-
    121009 G48  0.2-  0.1+    121010 695  0.2-  0.3+    121010 204  0.1+  0.1+
    121009 718  0.5+  0.1-    121010 718  0.2-  0.1-    121011 H21  0.3+  0.1+
    121009 718  0.3+  0.0     121010 718  0.0   0.1+    121011 H21  0.3+  0.4+
    121009 718  0.2+  0.1-    121010 H01  0.2+  0.0     121011 H21  0.3+  0.9+
    121009 718  0.9+  0.1-    121010 718  0.4+  0.0     121011 H21  0.1+  0.4+
    121009 857  0.3-  0.1-    121010 291  0.3-  0.3+    121011 H21  0.3+  0.6+
    121009 857  0.2-  1.2-    121010 291  0.1-  0.4+    121011 H21  0.3+  0.1-
    121009 857  1.0+  0.6+    121010 291  0.2-  0.3+    121011 H21  0.2+  0.1-
    121009 718  0.5+  0.4+    121010 718  0.4+  0.0     121011 H01  0.0   0.0
    121009 857  0.4-  0.2+    121010 H01  0.1+  0.1-    121011 695  0.3-  0.2+
    121009 857  0.1+  0.1-    121010 857  0.6-  0.3-    121011 695  0.1-  0.5+
    121009 H06  0.1-  0.2-    121010 857  0.4-  0.1-    121011 695  0.2-  0.3+
    121009 H06  0.1-  0.3-    121010 857  0.3-  0.5-    121011 H01  0.2-  0.2-
    121009 H06  0.1+  0.3-    121010 857  0.6-  0.4+    121011 H01  0.1-  0.0
    121009 T12  0.1+  0.0     121010 857 (1.5-  0.3-)   121011 H01  0.2-  0.1-
    121009 T12  0.1+  0.0     121010 H01  0.1+  0.0     121011 H01  0.4-  0.2-
    121009 F65  0.1-  0.1-    121010 H01  0.1+  0.0     121011 716  0.2+  0.0
    121009 T12  0.1+  0.0     121010 F65  0.1-  0.0     121011 716  0.0   0.1-
    121009 F65  0.0   0.0     121010 F65  0.0   0.1-    121011 716  0.8+  0.2+
    121009 F65  0.1+  0.1-    121010 F65  0.1-  0.1-    121011 716  0.1-  0.1+
    121009 F65  0.1+  0.1-    121010 F65  0.0   0.1-    121011 716  1.1+  0.0
    121009 F65  0.2-  0.1-    121010 F65  0.1+  0.0     121011 300  0.4+  0.2+
    121009 F65  0.1+  0.0     121010 F65  0.0   0.0     121011 300  0.6+  0.1+
    121009 F65  0.1-  0.0     121010 F65  0.0   0.1+    121011 300  1.0+  0.6+
    121009 F65  0.0   0.0     121010 F65  0.2-  0.1-    121011 300  0.9+  0.4+
    121009 F65  0.2+  0.1-    121010 F65  0.0   0.1-    121011 461  0.3+  0.4+
    121009 F65  0.1+  0.0     121010 F65  0.0   0.1-    121011 461  0.3+  0.4+
    121009 F65  0.0   0.1+    121010 F65  0.0   0.1-    121011 461  0.1-  0.2+
    121009 F65  0.0   0.0     121010 F65  0.0   0.0     121011 113  0.8-  0.6-
    121009 F65  0.1+  0.0     121010 F65  0.0   0.1-    121011 113  0.7-  0.6-
    121009 F65  0.1+  0.0     121010 F65  0.1-  0.0     121011 113  0.9-  0.4-
    121009 F65  0.1+  0.1-    121010 F65  0.0   0.1-    170727 309  0.1+  0.1+
    121009 F65  0.1+  0.0     121010 857  0.1-  0.1-    170727 309  0.1-  0.1+
    121009 E10  0.0   0.1-    121010 857  1.1-  1.2-    170731 309  0.1-  0.0
    121009 E10  0.0   0.1-    121010 857 (2.6-  0.9-)   170805 309  0.0   0.0
    121009 E10  0.1+  0.1-    121010 857  0.7-  0.0     170805 309  0.1-  0.1-
    121009 E10  0.1+  0.1-    121010 857 (2.0-  0.2-)
    121009 E10  0.1+  0.1-    121010 F65  0.1-  0.0
    
    Ephemeris:
    2012 TC4                 a,e,i = 1.41, 0.34, 1                   q = 0.9336
    Date    TT    R. A. (2000) Decl.     Delta      r     Elong.  Phase     V
    2017 07 07    22 38 02.5 -06 30 58   0.6129  1.4646   126.2    34.1    28.0
    ...
    2017 07 22    22 53 53.6 -04 31 57   0.4696  1.3929   136.1    30.4    27.2
    ...
    2017 07 30    23 00 36.2 -03 36 23   0.4008  1.3531   141.8    27.6    26.7
    ...
    2017 08 05    23 04 44.4 -02 59 18   0.3530  1.3227   146.3    25.2    26.3
    2017 08 06    23 05 21.0 -02 53 33   0.3453  1.3176   147.1    24.7    26.2
    2017 08 07    23 05 56.3 -02 47 55   0.3377  1.3125   147.9    24.3    26.2
    ...
    2017 08 13    23 08 57.1 -02 16 58   0.2942  1.2817   152.7    21.3    25.7
    ...
    2017 08 21    23 11 29.2 -01 44 16   0.2410  1.2403   159.5    16.6    25.1
    ...
    2017 09 05    23 11 44.0 -01 12 05   0.1562  1.1634   172.9     6.1    23.6
    
    A. U. Tomatic                (C) Copyright 2017 MPC           M.P.E.C. 2017-P26
    

    Read MPEC 2017-P25 Read MPEC 2017-P27


    MPEC number:

    Enter an MPEC number in one of the following forms:

    • 1997-B01 (the full form)
    • J97B01 (the packed version of the full form)
    • B01 (the abbreviated form)